DELTA 1 DEB, 40756

Orbit data source: Space-Track

DELTA 1 DEB, 40756 is space debris in SSO originally from a launch on Thu, 29 Jul 1976 UTC launched from the Air Force Western Test Range (AFWTR). Debris objects in space refer to the collection of defunct objects orbiting the Earth. Examples of debris include non-operational satellites, rocket bodies, and fragments generated from explosions, collisions, or faulty payload assembly.

Loading next visibility...
Identifier
40756, 1976-077FZ
Orbit
SSO
Country
Flag of USUS
Related business
Manufacturer
Unknown
Mission
Spacecraft
Bus & Motor
Unknown
Mass
Unknown
Launch date (UTC)
1976-07-29 (50 years ago)
Launch vehicle
Unknown
Launch site
Air Force Western Test Range (AFWTR)
Object type
Payload
Rocket body
Debris
Shape & HBR
Unknown shape, 0.1 m
Radar Cross Section
Small (<0.1 m²)

Expand to show TLE details & history
Last TLE update: 4 days ago

TLE from 4 days ago
0 DELTA 1 DEB
1 40756U 76077FZ  26029.69928048 -.00000032  00000-0  12680-3 0  9990
2 40756 102.5580  14.1099 0077114 260.1121 275.5382 12.25956408939568
Epoch: 2026-01-29T16:46Z
TLE epoch observation values (Epoch: 2026-01-29T16:46:57.833Z)
Latitude
5.02977°
Longitude
174.53862°
Altitude
1,563.255 km
Speed
7.089 km/s
True Right ascension
13h 00m 54s
True Declination
5° 00' 10"
Sunlit
Object was in daylight at epoch
Visualization orbit readout
Latitude
Unknown
Longitude
Unknown
Altitude
Unknown
Speed
Unknown
Apparent Right ascension
Unknown
Apparent Declination
Unknown
Sunlit
N/A
Visualization observer readout
Local Sidereal Time
02:44:39
Azimuth
Unknown
Elevation
Unknown
Doppler factor
Unknown
Orbital elements
Apogee altitude
1,625.577 km
Perigee altitude
1,503.082 km
Semi-major axis
7,942.467 km
Eccentricity
0.00771
Inclination
102.558°
RAAN
14.1099°
Arg. of periapsis
260.1121°
True anomaly
274.65788°
Mean anomaly
275.5382°
Eccentric anomaly
275.09812°
Mean motion
3.06627 °/min
Orbital period
117.41 mins
BSTAR
0.0001268
Loading maneuver chart data...
Computing Atmospheric mass density...
Loading historical data...
Loading historical data...
Loading historical data...
Loading historical data...
Loading historical data...
Loading historical data...
Loading historical data...

Documentation

Showing up to 5 results
|